Time,TemperatureF,DewpointF,PressureIn,WindDirection,WindDirectionDegrees,WindSpeedMPH,WindSpeedGustMPH,Humidity,HourlyPrecipIn,Conditions,Clouds,dailyrainin,SoftwareType,DateUTC
2013-07-11 00:00:00,69.4,62.6,30.01,NNW,338,0.0,0.0,79,0.00,,CLR,0.00,VWS V14.01,2013-07-11 05:00:00,
2013-07-11 00:10:00,69.0,62.9,30.01,NNW,338,0.0,0.0,81,0.00,,CLR,0.00,VWS V14.01,2013-07-11 05:10:00,
2013-07-11 00:20:00,68.9,63.2,30.01,NNW,338,0.0,0.0,82,0.00,,CLR,0.00,VWS V14.01,2013-07-11 05:20:00,
2013-07-11 00:30:00,69.0,62.9,30.01,NNW,338,0.0,0.0,81,0.00,,CLR,0.00,VWS V14.01,2013-07-11 05:30:00,
2013-07-11 00:40:00,68.8,62.0,30.01,NNW,338,0.0,0.0,79,0.00,,CLR,0.00,VWS V14.01,2013-07-11 05:40:00,
2013-07-11 00:50:00,68.5,62.1,30.02,NNW,338,0.0,0.0,80,0.00,,CLR,0.00,VWS V14.01,2013-07-11 05:50:00,
2013-07-11 01:00:00,68.2,61.8,30.02,NNW,338,0.0,0.0,80,0.00,,CLR,0.00,VWS V14.01,2013-07-11 06:00:00,
2013-07-11 01:10:00,68.0,62.0,30.02,East,90,0.0,1.0,81,0.00,,CLR,0.00,VWS V14.01,2013-07-11 06:10:00,
2013-07-11 01:20:00,67.9,62.2,30.02,East,90,0.0,0.0,82,0.00,,CLR,0.00,VWS V14.01,2013-07-11 06:20:00,
2013-07-11 01:30:00,67.9,62.2,30.02,East,90,0.0,1.0,82,0.00,,CLR,0.00,VWS V14.01,2013-07-11 06:30:00,
2013-07-11 01:40:00,67.7,62.4,30.02,East,90,0.0,1.0,83,0.00,,CLR,0.00,VWS V14.01,2013-07-11 06:40:00,
2013-07-11 01:50:00,67.5,62.5,30.02,ESE,112,0.0,2.0,84,0.00,,CLR,0.00,VWS V14.01,2013-07-11 06:50:00,
2013-07-11 02:00:00,67.2,62.5,30.02,ESE,112,0.0,0.0,85,0.00,,CLR,0.00,VWS V14.01,2013-07-11 07:00:00,
2013-07-11 02:10:00,67.0,62.3,30.02,East,90,0.0,1.0,85,0.00,,CLR,0.00,VWS V14.01,2013-07-11 07:10:00,
2013-07-11 02:20:00,67.0,62.3,30.02,East,90,0.0,3.0,85,0.00,,CLR,0.00,VWS V14.01,2013-07-11 07:20:00,
2013-07-11 02:30:00,66.9,62.2,30.03,SE,135,0.0,1.0,85,0.00,,CLR,0.00,VWS V14.01,2013-07-11 07:30:00,
2013-07-11 02:40:00,66.8,62.5,30.03,ESE,112,0.0,1.0,86,0.00,,CLR,0.00,VWS V14.01,2013-07-11 07:40:00,
2013-07-11 02:50:00,66.6,62.6,30.03,ESE,112,0.0,1.0,87,0.00,,CLR,0.00,VWS V14.01,2013-07-11 07:50:00,
2013-07-11 03:00:00,65.6,62.0,30.03,ESE,112,0.0,1.0,88,0.00,,CLR,0.00,VWS V14.01,2013-07-11 08:00:00,
2013-07-11 03:10:00,65.0,62.0,30.03,ESE,112,0.0,0.0,90,0.00,,CLR,0.00,VWS V14.01,2013-07-11 08:10:00,
2013-07-11 03:20:00,64.7,62.0,30.03,ESE,112,0.0,0.0,91,0.00,,CLR,0.00,VWS V14.01,2013-07-11 08:20:00,
2013-07-11 03:30:00,64.2,61.5,30.03,ESE,112,0.0,0.0,91,0.00,,CLR,0.00,VWS V14.01,2013-07-11 08:30:00,
2013-07-11 03:40:00,63.8,61.4,30.03,ESE,112,0.0,0.0,92,0.00,,CLR,0.00,VWS V14.01,2013-07-11 08:40:00,
2013-07-11 03:50:00,63.5,61.1,30.03,ESE,112,0.0,0.0,92,0.00,,CLR,0.00,VWS V14.01,2013-07-11 08:50:00,
2013-07-11 04:00:00,63.3,61.2,30.03,ESE,112,0.0,0.0,93,0.00,,CLR,0.00,VWS V14.01,2013-07-11 09:00:00,
2013-07-11 04:10:00,63.2,61.2,30.03,ESE,112,0.0,0.0,93,0.00,,CLR,0.00,VWS V14.01,2013-07-11 09:10:00,
2013-07-11 04:20:00,63.3,61.5,30.03,ESE,112,0.0,0.0,94,0.00,,CLR,0.00,VWS V14.01,2013-07-11 09:20:00,
2013-07-11 04:30:00,63.2,61.5,30.03,ESE,112,0.0,0.0,94,0.00,,CLR,0.00,VWS V14.01,2013-07-11 09:30:00,
2013-07-11 04:40:00,63.2,61.5,30.03,ESE,112,0.0,0.0,94,0.00,,CLR,0.00,VWS V14.01,2013-07-11 09:40:00,
2013-07-11 04:50:00,63.0,61.2,30.04,ESE,112,0.0,0.0,94,0.00,,CLR,0.00,VWS V14.01,2013-07-11 09:50:00,
2013-07-11 05:00:00,62.9,61.2,30.04,ESE,112,0.0,0.0,94,0.00,,CLR,0.00,VWS V14.01,2013-07-11 10:00:00,
2013-07-11 05:10:00,62.8,61.0,30.05,ESE,112,0.0,0.0,94,0.00,,CLR,0.00,VWS V14.01,2013-07-11 10:10:00,
2013-07-11 05:20:00,62.9,61.5,30.05,ESE,112,0.0,0.0,95,0.00,,CLR,0.00,VWS V14.01,2013-07-11 10:20:00,
2013-07-11 05:30:00,63.0,61.5,30.05,ESE,112,0.0,0.0,95,0.00,,CLR,0.00,VWS V14.01,2013-07-11 10:30:00,
2013-07-11 05:40:00,63.3,61.8,30.05,ESE,112,0.0,0.0,95,0.00,,CLR,0.00,VWS V14.01,2013-07-11 10:40:00,
2013-07-11 05:50:00,63.4,62.0,30.06,ESE,112,0.0,0.0,95,0.00,,CLR,0.00,VWS V14.01,2013-07-11 10:50:00,
2013-07-11 06:00:00,63.8,62.3,30.06,ESE,112,0.0,0.0,95,0.00,,CLR,0.00,VWS V14.01,2013-07-11 11:00:00,
2013-07-11 06:10:00,64.2,62.7,30.06,ESE,112,0.0,0.0,95,0.00,,CLR,0.00,VWS V14.01,2013-07-11 11:10:00,
2013-07-11 06:20:00,64.6,63.1,30.06,ESE,112,0.0,0.0,95,0.00,,CLR,0.00,VWS V14.01,2013-07-11 11:20:00,
2013-07-11 06:30:00,65.4,63.9,30.06,ESE,112,0.0,0.0,95,0.00,,CLR,0.00,VWS V14.01,2013-07-11 11:30:00,
2013-07-11 06:40:00,66.5,65.0,30.07,ESE,112,0.0,0.0,95,0.00,,CLR,0.00,VWS V14.01,2013-07-11 11:40:00,
2013-07-11 06:50:00,67.2,64.8,30.07,ESE,112,0.0,0.0,92,0.00,,CLR,0.00,VWS V14.01,2013-07-11 11:50:00,
2013-07-11 07:00:00,67.5,64.8,30.07,NE,45,0.0,2.0,91,0.00,,CLR,0.00,VWS V14.01,2013-07-11 12:00:00,
2013-07-11 07:10:00,68.0,64.6,30.07,NE,45,0.0,1.0,89,0.00,,CLR,0.00,VWS V14.01,2013-07-11 12:10:00,
2013-07-11 07:20:00,67.9,63.9,30.08,NE,45,0.0,0.0,87,0.00,,CLR,0.00,VWS V14.01,2013-07-11 12:20:00,
2013-07-11 07:30:00,68.5,64.5,30.08,NE,45,0.0,0.0,87,0.00,,CLR,0.00,VWS V14.01,2013-07-11 12:30:00,
2013-07-11 07:40:00,69.2,64.5,30.08,NE,45,0.0,0.0,85,0.00,,CLR,0.00,VWS V14.01,2013-07-11 12:40:00,
2013-07-11 07:50:00,70.0,64.9,30.08,NE,45,0.0,0.0,84,0.00,,CLR,0.00,VWS V14.01,2013-07-11 12:50:00,
2013-07-11 08:00:00,71.4,65.6,30.08,NE,45,0.0,0.0,82,0.00,,CLR,0.00,VWS V14.01,2013-07-11 13:00:00,
2013-07-11 08:10:00,72.5,65.6,30.08,NE,45,0.0,0.0,79,0.00,,CLR,0.00,VWS V14.01,2013-07-11 13:10:00,
2013-07-11 08:20:00,72.8,65.2,30.08,NE,45,0.0,0.0,77,0.00,,CLR,0.00,VWS V14.01,2013-07-11 13:20:00,
2013-07-11 08:30:00,72.6,65.0,30.08,NE,45,0.0,0.0,77,0.00,,CLR,0.00,VWS V14.01,2013-07-11 13:30:00,
2013-07-11 08:40:00,74.3,65.5,30.09,NE,45,0.0,0.0,74,0.00,,CLR,0.00,VWS V14.01,2013-07-11 13:40:00,
2013-07-11 08:50:00,74.8,65.2,30.09,ENE,68,0.0,3.0,72,0.00,,CLR,0.00,VWS V14.01,2013-07-11 13:50:00,
2013-07-11 09:00:00,75.1,64.2,30.09,NNE,22,0.0,3.0,69,0.00,,CLR,0.00,VWS V14.01,2013-07-11 14:00:00,
2013-07-11 09:10:00,74.7,64.3,30.09,NNE,22,0.0,0.0,70,0.00,,CLR,0.00,VWS V14.01,2013-07-11 14:10:00,
2013-07-11 09:20:00,75.7,64.4,30.09,North,0,0.0,1.0,68,0.00,,CLR,0.00,VWS V14.01,2013-07-11 14:20:00,
2013-07-11 09:30:00,76.3,64.1,30.09,ENE,68,0.0,1.0,66,0.00,,CLR,0.00,VWS V14.01,2013-07-11 14:30:00,
2013-07-11 09:40:00,76.5,64.3,30.09,NNE,22,0.0,3.0,66,0.00,,CLR,0.00,VWS V14.01,2013-07-11 14:40:00,
2013-07-11 09:50:00,76.9,64.2,30.08,NNE,22,0.0,2.0,65,0.00,,CLR,0.00,VWS V14.01,2013-07-11 14:50:00,
2013-07-11 10:00:00,76.8,64.6,30.08,East,90,1.0,4.0,66,0.00,,CLR,0.00,VWS V14.01,2013-07-11 15:00:00,
2013-07-11 10:10:00,77.4,63.8,30.09,East,90,0.0,0.0,63,0.00,,CLR,0.00,VWS V14.01,2013-07-11 15:10:00,
2013-07-11 10:20:00,77.5,64.8,30.09,ENE,68,0.0,3.0,65,0.00,,CLR,0.00,VWS V14.01,2013-07-11 15:20:00,
2013-07-11 10:30:00,77.7,63.7,30.08,East,90,1.0,7.0,62,0.00,,CLR,0.00,VWS V14.01,2013-07-11 15:30:00,
2013-07-11 10:40:00,77.9,62.9,30.09,NE,45,0.0,4.0,60,0.00,,CLR,0.00,VWS V14.01,2013-07-11 15:40:00,
2013-07-11 10:50:00,78.1,60.6,30.09,NNE,22,1.0,7.0,55,0.00,,CLR,0.00,VWS V14.01,2013-07-11 15:50:00,
2013-07-11 11:00:00,77.6,61.2,30.09,ENE,68,1.0,6.0,57,0.00,,CLR,0.00,VWS V14.01,2013-07-11 16:00:00,
2013-07-11 11:10:00,77.9,61.5,30.09,NNE,22,0.0,7.0,57,0.00,,CLR,0.00,VWS V14.01,2013-07-11 16:10:00,
2013-07-11 11:20:00,78.7,61.7,30.09,North,0,0.0,2.0,56,0.00,,CLR,0.00,VWS V14.01,2013-07-11 16:20:00,
2013-07-11 11:30:00,78.3,61.3,30.09,East,90,1.0,7.0,56,0.00,,CLR,0.00,VWS V14.01,2013-07-11 16:30:00,
2013-07-11 11:40:00,78.4,62.9,30.09,ENE,68,1.0,6.0,59,0.00,,CLR,0.00,VWS V14.01,2013-07-11 16:40:00,
2013-07-11 11:50:00,78.7,61.7,30.09,NNE,22,0.0,4.0,56,0.00,,CLR,0.00,VWS V14.01,2013-07-11 16:50:00,
2013-07-11 12:00:00,79.2,61.1,30.09,NNE,22,0.0,4.0,54,0.00,,CLR,0.00,VWS V14.01,2013-07-11 17:00:00,
2013-07-11 12:10:00,79.3,61.2,30.09,NNW,338,1.0,5.0,54,0.00,,CLR,0.00,VWS V14.01,2013-07-11 17:10:00,
2013-07-11 12:20:00,79.2,61.1,30.09,NNE,22,1.0,5.0,54,0.00,,CLR,0.00,VWS V14.01,2013-07-11 17:20:00,
2013-07-11 12:30:00,79.4,61.3,30.09,NNE,22,1.0,4.0,54,0.00,,CLR,0.00,VWS V14.01,2013-07-11 17:30:00,
2013-07-11 12:40:00,78.7,59.6,30.09,East,90,2.0,10.0,52,0.00,,CLR,0.00,VWS V14.01,2013-07-11 17:40:00,
2013-07-11 12:50:00,78.7,61.2,30.09,NNE,22,0.0,9.0,55,0.00,,CLR,0.00,VWS V14.01,2013-07-11 17:50:00,
2013-07-11 13:00:00,79.0,59.9,30.09,NNE,22,1.0,5.0,52,0.00,,CLR,0.00,VWS V14.01,2013-07-11 18:00:00,
2013-07-11 13:10:00,79.0,61.0,30.09,East,90,1.0,8.0,54,0.00,,CLR,0.00,VWS V14.01,2013-07-11 18:10:00,
2013-07-11 13:20:00,79.1,61.6,30.09,East,90,2.0,7.0,55,0.00,,CLR,0.00,VWS V14.01,2013-07-11 18:20:00,
2013-07-11 13:30:00,79.6,61.5,30.09,ENE,68,1.0,6.0,54,0.00,,CLR,0.00,VWS V14.01,2013-07-11 18:30:00,
2013-07-11 13:40:00,79.6,58.8,30.09,NNE,22,1.0,5.0,49,0.00,,CLR,0.00,VWS V14.01,2013-07-11 18:40:00,
2013-07-11 13:50:00,80.2,61.0,30.09,NNE,22,0.0,2.0,52,0.00,,CLR,0.00,VWS V14.01,2013-07-11 18:50:00,
2013-07-11 14:00:00,80.5,60.7,30.09,ENE,68,0.0,4.0,51,0.00,,CLR,0.00,VWS V14.01,2013-07-11 19:00:00,
2013-07-11 14:10:00,80.0,61.9,30.09,NNE,22,1.0,6.0,54,0.00,,CLR,0.00,VWS V14.01,2013-07-11 19:10:00,
2013-07-11 14:20:00,80.0,59.1,30.09,NNE,22,0.0,4.0,49,0.00,,CLR,0.00,VWS V14.01,2013-07-11 19:20:00,
2013-07-11 14:30:00,80.3,61.1,30.08,WNW,292,0.0,2.0,52,0.00,,CLR,0.00,VWS V14.01,2013-07-11 19:30:00,
2013-07-11 14:40:00,80.0,59.7,30.09,NNE,22,1.0,5.0,50,0.00,,CLR,0.00,VWS V14.01,2013-07-11 19:40:00,
2013-07-11 14:50:00,79.6,60.4,30.08,NNE,22,1.0,6.0,52,0.00,,CLR,0.00,VWS V14.01,2013-07-11 19:50:00,
2013-07-11 15:00:00,79.7,58.3,30.09,NNE,22,1.0,6.0,48,0.00,,CLR,0.00,VWS V14.01,2013-07-11 20:00:00,
2013-07-11 15:10:00,79.3,58.5,30.09,East,90,1.0,7.0,49,0.00,,CLR,0.00,VWS V14.01,2013-07-11 20:10:00,
2013-07-11 15:20:00,79.7,60.0,30.09,East,90,1.0,8.0,51,0.00,,CLR,0.00,VWS V14.01,2013-07-11 20:20:00,
2013-07-11 15:30:00,79.3,59.1,30.09,East,90,1.0,7.0,50,0.00,,CLR,0.00,VWS V14.01,2013-07-11 20:30:00,
2013-07-11 15:40:00,79.1,57.8,30.09,East,90,1.0,6.0,48,0.00,,CLR,0.00,VWS V14.01,2013-07-11 20:40:00,
2013-07-11 15:50:00,78.9,59.8,30.09,NE,45,1.0,5.0,52,0.00,,CLR,0.00,VWS V14.01,2013-07-11 20:50:00,
2013-07-11 16:00:00,78.7,59.1,30.09,East,90,1.0,6.0,51,0.00,,CLR,0.00,VWS V14.01,2013-07-11 21:00:00,
2013-07-11 16:10:00,78.8,59.2,30.09,ENE,68,1.0,6.0,51,0.00,,CLR,0.00,VWS V14.01,2013-07-11 21:10:00,
2013-07-11 16:20:00,78.4,58.2,30.09,East,90,2.0,8.0,50,0.00,,CLR,0.00,VWS V14.01,2013-07-11 21:20:00,
2013-07-11 16:30:00,78.4,59.9,30.08,East,90,2.0,7.0,53,0.00,,CLR,0.00,VWS V14.01,2013-07-11 21:30:00,
2013-07-11 16:40:00,78.0,59.0,30.08,East,90,1.0,6.0,52,0.00,,CLR,0.00,VWS V14.01,2013-07-11 21:40:00,
2013-07-11 16:50:00,78.0,59.0,30.08,East,90,1.0,5.0,52,0.00,,CLR,0.00,VWS V14.01,2013-07-11 21:50:00,
2013-07-11 17:00:00,78.3,60.8,30.08,NNE,22,0.0,4.0,55,0.00,,CLR,0.00,VWS V14.01,2013-07-11 22:00:00,
2013-07-11 17:10:00,78.3,59.8,30.08,ENE,68,1.0,6.0,53,0.00,,CLR,0.00,VWS V14.01,2013-07-11 22:10:00,
2013-07-11 17:20:00,78.4,61.4,30.07,East,90,0.0,4.0,56,0.00,,CLR,0.00,VWS V14.01,2013-07-11 22:20:00,
2013-07-11 17:30:00,78.3,60.8,30.07,East,90,1.0,4.0,55,0.00,,CLR,0.00,VWS V14.01,2013-07-11 22:30:00,
2013-07-11 17:40:00,77.6,60.2,30.07,ESE,112,2.0,5.0,55,0.00,,CLR,0.00,VWS V14.01,2013-07-11 22:40:00,
2013-07-11 17:50:00,77.6,59.1,30.08,East,90,1.0,7.0,53,0.00,,CLR,0.00,VWS V14.01,2013-07-11 22:50:00,
2013-07-11 18:00:00,77.7,60.3,30.08,East,90,1.0,4.0,55,0.00,,CLR,0.00,VWS V14.01,2013-07-11 23:00:00,
2013-07-11 18:10:00,77.3,58.3,30.07,East,90,1.0,4.0,52,0.00,,CLR,0.00,VWS V14.01,2013-07-11 23:10:00,
2013-07-11 18:20:00,77.4,60.5,30.07,SE,135,1.0,3.0,56,0.00,,CLR,0.00,VWS V14.01,2013-07-11 23:20:00,
2013-07-11 18:30:00,77.4,59.5,30.07,ESE,112,1.0,3.0,54,0.00,,CLR,0.00,VWS V14.01,2013-07-11 23:30:00,
2013-07-11 18:40:00,77.3,59.9,30.07,East,90,1.0,4.0,55,0.00,,CLR,0.00,VWS V14.01,2013-07-11 23:40:00,
2013-07-11 18:50:00,77.1,60.2,30.07,East,90,1.0,4.0,56,0.00,,CLR,0.00,VWS V14.01,2013-07-11 23:50:00,
2013-07-11 19:00:00,76.7,60.3,30.07,East,90,1.0,4.0,57,0.00,,CLR,0.00,VWS V14.01,2013-07-12 00:00:00,
2013-07-11 19:10:00,76.3,60.5,30.07,East,90,1.0,3.0,58,0.00,,CLR,0.00,VWS V14.01,2013-07-12 00:10:00,
2013-07-11 19:20:00,76.0,61.1,30.07,ESE,112,1.0,3.0,60,0.00,,CLR,0.00,VWS V14.01,2013-07-12 00:20:00,
2013-07-11 19:30:00,75.4,60.1,30.06,East,90,1.0,3.0,59,0.00,,CLR,0.00,VWS V14.01,2013-07-12 00:30:00,
2013-07-11 19:40:00,74.9,60.6,30.07,East,90,0.0,2.0,61,0.00,,CLR,0.00,VWS V14.01,2013-07-12 00:40:00,
2013-07-11 19:50:00,74.2,59.4,30.06,East,90,0.0,3.0,60,0.00,,CLR,0.00,VWS V14.01,2013-07-12 00:50:00,
2013-07-11 20:00:00,73.7,59.9,30.06,East,90,0.0,1.0,62,0.00,,CLR,0.00,VWS V14.01,2013-07-12 01:00:00,
2013-07-11 20:10:00,73.0,59.2,30.06,East,90,0.0,2.0,62,0.00,,CLR,0.00,VWS V14.01,2013-07-12 01:10:00,
2013-07-11 20:20:00,72.5,59.2,30.06,East,90,0.0,2.0,63,0.00,,CLR,0.00,VWS V14.01,2013-07-12 01:20:00,
2013-07-11 20:30:00,71.9,58.6,30.06,East,90,0.0,3.0,63,0.00,,CLR,0.00,VWS V14.01,2013-07-12 01:30:00,
2013-07-11 20:40:00,71.4,58.6,30.06,East,90,0.0,2.0,64,0.00,,CLR,0.00,VWS V14.01,2013-07-12 01:40:00,
2013-07-11 20:50:00,70.9,58.6,30.06,East,90,0.0,1.0,65,0.00,,CLR,0.00,VWS V14.01,2013-07-12 01:50:00,
2013-07-11 21:00:00,70.6,58.7,30.06,East,90,0.0,2.0,66,0.00,,CLR,0.00,VWS V14.01,2013-07-12 02:00:00,
2013-07-11 21:10:00,70.0,58.5,30.07,East,90,0.0,1.0,67,0.00,,CLR,0.00,VWS V14.01,2013-07-12 02:10:00,
2013-07-11 21:20:00,70.2,58.3,30.07,East,90,0.0,2.0,66,0.00,,CLR,0.00,VWS V14.01,2013-07-12 02:20:00,
2013-07-11 21:30:00,70.6,57.8,30.07,East,90,1.0,3.0,64,0.00,,CLR,0.00,VWS V14.01,2013-07-12 02:30:00,
2013-07-11 21:40:00,70.2,57.9,30.07,ESE,112,0.0,2.0,65,0.00,,CLR,0.00,VWS V14.01,2013-07-12 02:40:00,
2013-07-11 21:50:00,69.7,57.8,30.08,East,90,0.0,2.0,66,0.00,,CLR,0.00,VWS V14.01,2013-07-12 02:50:00,
2013-07-11 22:00:00,69.8,57.5,30.08,ESE,112,0.0,2.0,65,0.00,,CLR,0.00,VWS V14.01,2013-07-12 03:00:00,
2013-07-11 22:10:00,69.4,57.6,30.08,East,90,0.0,2.0,66,0.00,,CLR,0.00,VWS V14.01,2013-07-12 03:10:00,
2013-07-11 22:20:00,69.3,57.5,30.08,ESE,112,0.0,1.0,66,0.00,,CLR,0.00,VWS V14.01,2013-07-12 03:20:00,
2013-07-11 22:30:00,68.9,57.5,30.08,ESE,112,0.0,2.0,67,0.00,,CLR,0.00,VWS V14.01,2013-07-12 03:30:00,
2013-07-11 22:40:00,68.7,57.3,30.08,SE,135,0.0,1.0,67,0.00,,CLR,0.00,VWS V14.01,2013-07-12 03:40:00,
2013-07-11 22:50:00,68.4,57.0,30.08,ESE,112,0.0,3.0,67,0.00,,CLR,0.00,VWS V14.01,2013-07-12 03:50:00,
2013-07-11 23:00:00,67.9,57.0,30.08,SE,135,0.0,2.0,68,0.00,,CLR,0.00,VWS V14.01,2013-07-12 04:00:00,
2013-07-11 23:10:00,67.9,57.0,30.08,East,90,1.0,2.0,68,0.00,,CLR,0.00,VWS V14.01,2013-07-12 04:10:00,
2013-07-11 23:20:00,67.8,56.9,30.08,ESE,112,0.0,2.0,68,0.00,,CLR,0.00,VWS V14.01,2013-07-12 04:20:00,
2013-07-11 23:30:00,68.1,56.7,30.08,ESE,112,0.0,3.0,67,0.00,,CLR,0.00,VWS V14.01,2013-07-12 04:30:00,
2013-07-11 23:40:00,67.9,56.5,30.08,East,90,1.0,2.0,67,0.00,,CLR,0.00,VWS V14.01,2013-07-12 04:40:00,
2013-07-11 23:50:00,67.7,56.4,30.08,East,90,1.0,2.0,67,0.00,,CLR,0.00,VWS V14.01,2013-07-12 04:50:00,